Home   Weather   Brasilia   Past weeks

Flag for Brazil Past Weather in Brasilia, Distrito Federal, Brazil — Yesterday and Last 2 Weeks

Now
66 °F

Light rain. Overcast.


Feels Like: 66 °F
Forecast: 64 / 79 °F
Wind: 3 mph from Southeast

Location: Brasilia Aeroporto

Current Time: Jan 24, 2017 at 1:19:24 am

Latest Report: Jan 24, 2017 at 12:00 am


Visibility: N/A

Pressure: N/A

Humidity: 94%

Dew Point: 64 °F

Location of BrasiliaLocation

Past Weather in Brasilia — Graph

°F

Brasilia Temperature Yesterday

Maximum temperature yesterday: 81 °F (at 12:00 pm)
Minimum temperature yesterday: 63 °F (at 7:00 am)
Average temperature yesterday: 71 °F

High & Low Weather Summary for the Past Weeks

 TemperatureHumidityPressure
High91 °F (Jan 9, 5:00 pm)100% (Jan 11, 7:00 am)30.15 "Hg (Jan 11, 7:00 am)
Low61 °F (Jan 22, 6:00 am)18% (Jan 11, 8:00 pm)29.92 "Hg (Jan 10, 5:00 pm)
Average73 °F78%30.04 "Hg
* Reported Jan 9 12:00 am — Jan 24 12:00 am, Brasilia, Weather by CustomWeather, © 2017

Note: Actual official high and low records may vary slightly from our data, if they occured in-between our weather recording intervals... More about our weather records

Advertising

Brasilia Weather History for the Previous 24 Hours

Scroll right to see more
 ConditionsComfort  
Time TempWeatherWind HumidityBarometerVisibility
12:00 am
Tue, Jan 24
66 °FLight rain. Overcast.3 mph94%N/AN/A
10:00 pm
Mon, Jan 23
70 °FThundershowers. Passing clouds.2 mph83%30.09 "HgN/A
9:00 pm72 °FThundershowers. Passing clouds.5 mph88%N/AN/A
8:00 pm73 °FPartly cloudy.9 mph89%30.04 "HgN/A
7:00 pm73 °FBroken clouds.10 mph89%30.04 "HgN/A
6:00 pm75 °FBroken clouds.6 mph78%30.01 "HgN/A
5:00 pm75 °FScattered showers. Partly sunny.2 mph78%N/AN/A
4:00 pm75 °FScattered clouds.12 mph78%30.04 "HgN/A
3:00 pm66 °FMild.14 mph88%30.07 "Hg1 mi
2:39 pm72 °FRain showers. Partly sunny.15 mph88%30.07 "Hg2 mi
12:00 pm81 °FPartly sunny.6 mph54%30.09 "HgN/A
11:00 am79 °FBroken clouds.7 mph61%30.09 "HgN/A
10:00 am77 °FPartly sunny.6 mph65%30.09 "HgN/A
9:00 am72 °FBroken clouds.5 mph78%30.09 "HgN/A
8:00 am70 °FPartly sunny.2 mph88%30.09 "HgN/A
7:00 am63 °FPartly sunny.5 mph94%30.07 "HgN/A
6:00 am64 °FPassing clouds.2 mph94%30.04 "HgN/A
5:00 am66 °FPartly cloudy.5 mph88%30.07 "HgN/A
4:00 am64 °FPassing clouds.6 mph94%30.07 "HgN/A
2:00 am64 °FClear.3 mph88%30.07 "Hg10 mi
1:00 am66 °FClear.2 mph88%30.07 "Hg10 mi
Weather by CustomWeather, © 2017

See weather overviewHow to use our weather pages